Location: Parador Hotel
(28.2240°N, 16.6271°W)
Time: 18:05:22
(UTC+00:00)

N. Korean satellite - Visible Passes

Search period start: 25 January 2022 00:00
Search period end: 04 February 2022 00:00
Orbit: 447 x 491 km, 97.3° (Epoch: 25 January)

Date Brightness Start Highest point End Pass type
(mag) Time Alt. Az. Time Alt. Az. Time Alt. Az.
25 Jan 7.7 06:26:54 30° SSW 06:26:54 30° SSW 06:28:50 10° SSW visible
26 Jan 8.2 05:57:25 29° SSE 05:57:25 29° SSE 05:59:31 10° S visible
27 Jan 9.6 05:27:52 14° ESE 05:27:52 14° ESE 05:29:04 10° SE visible
27 Jan 8.6 07:01:54 13° WSW 07:01:54 13° WSW 07:02:29 10° WSW visible
28 Jan 7.7 06:27:15 10° N 06:32:21 28° SW 06:34:15 10° SSW visible
29 Jan 7.9 05:58:04 10° NNE 06:02:44 35° SSE 06:05:03 10° S visible
30 Jan 9.3 05:29:42 10° NE 05:33:04 17° ESE 05:34:50 10° SE visible
30 Jan 8.5 07:02:52 10° NNW 07:07:05 12° WSW 07:07:32 10° WSW visible
31 Jan 7.4 06:32:42 10° N 06:37:19 31° WSW 06:39:31 10° SSW visible
01 Feb 7.0 06:03:22 10° NNE 06:07:11 60° SE 06:10:26 10° S visible
02 Feb 9.0 05:34:46 10° NE 05:37:36 22° E 05:40:25 10° SSE visible
02 Feb 8.3 07:08:33 10° NW 07:10:28 14° WNW 07:12:22 10° WSW visible
03 Feb 7.1 06:38:04 10° N 06:41:22 35° WNW 06:44:38 10° SW visible
